Date String (YYYY-MM-DD hh:mm:ss) UTC,Instrument flags,absolute air pressure of the measurement (hPa),sample flow rate (lpm),inlet stack bypass flow (lpm),air temperature of the measurement (°C),ambient temperature measured by the external sensor (°C),aerosol sample conditioner tube jacket temperature (°C),OPC LED temperature (°C),internal box temperature (°C),relative humidity of the measurement (%),span deviation,mass concentration of particles derived from Lorenz-Mie calculation of OPC scattering (μg/m³),mass concentration of particles derived from Lorenz-Mie calculation of OPC scattering (μg/m³),mass concentration of particles derived from Lorenz-Mie calculation of OPC scattering (μg/m³)
DateTimeUTC,F1_M11,P_M11,Q1_M11,Q2_M11,T1_M11,T2_M11,T3_M11,T4_M11,T5_M11,U1_M11,ZSPAN_M11,X0_M11,X2_M11,X1_M11
2024-04-18 19:00:00,SystemResetWarning,0834.2,4.99,000.00,020.3,019.7,000.0,028.9,022.1,022.0,0000.0,0008.46,0006.14,0005.88
2024-04-18 19:01:00,SystemResetWarning,0834.1,5.00,000.00,020.3,019.7,000.0,028.9,022.1,022.1,0000.0,0008.43,0006.13,0005.88
2024-04-18 19:02:00,SystemResetWarning,0834.1,5.00,000.00,020.3,019.7,000.0,028.9,022.1,022.0,0000.0,0008.33,0006.09,0005.85
2024-04-18 19:03:00,SystemResetWarning,0834.1,5.00,000.00,020.3,019.7,000.0,028.9,022.1,021.9,0000.0,0008.25,0006.04,0005.81
2024-04-18 19:04:00,SystemResetWarning,0834.1,5.00,000.00,020.3,019.7,000.0,028.9,022.1,021.8,0000.0,0008.20,0006.02,0005.80
2024-04-18 19:05:00,SystemResetWarning,0834.2,5.00,000.00,020.3,019.7,000.0,028.9,022.1,021.7,0000.0,0008.13,0005.98,0005.79
2024-04-18 19:06:00,SystemResetWarning,0834.1,5.00,000.00,020.3,019.7,000.0,028.9,022.1,021.8,0000.0,0008.10,0005.96,0005.77
2024-04-18 19:07:00,SystemResetWarning,0834.2,5.00,000.00,020.3,019.7,000.0,028.9,022.2,021.9,0000.0,0008.08,0005.94,0005.76
2024-04-18 19:08:00,SystemResetWarning,0834.2,5.00,000.00,020.3,019.7,000.0,028.9,022.2,022.0,0000.0,0007.69,0005.91,0005.74
2024-04-18 19:09:00,SystemResetWarning,0834.2,4.99,000.00,020.3,019.7,000.0,028.9,022.2,021.9,0000.0,0007.47,0005.89,0005.72
2024-04-18 19:10:00,SystemResetWarning,0834.2,4.99,000.00,020.3,019.7,000.0,028.9,022.2,021.7,0000.0,0007.54,0005.88,0005.70
2024-04-18 19:11:00,SystemResetWarning,0834.2,5.00,000.00,020.3,019.7,000.0,028.9,022.2,021.6,0000.0,0007.50,0005.86,0005.69
2024-04-18 19:12:00,SystemResetWarning,0834.2,5.01,000.00,020.4,019.8,000.0,028.9,022.2,021.5,0000.0,0007.52,0005.83,0005.67
2024-04-18 19:13:00,SystemResetWarning,0834.1,5.01,000.00,020.4,019.8,000.0,028.9,022.2,021.4,0000.0,0007.54,0005.82,0005.68
2024-04-18 19:14:00,SystemResetWarning,0834.2,4.99,000.00,020.4,019.8,000.0,028.9,022.2,021.4,0000.0,0007.71,0005.84,0005.68
2024-04-18 19:15:00,SystemResetWarning,0834.1,5.00,000.00,020.4,019.8,000.0,028.9,022.2,021.4,0000.0,0007.74,0005.83,0005.67
2024-04-18 19:16:00,SystemResetWarning,0834.1,5.00,000.00,020.4,019.8,000.0,028.9,022.2,021.3,0000.0,0007.75,0005.83,0005.65
2024-04-18 19:17:00,SystemResetWarning,0834.1,5.00,000.00,020.4,019.8,000.0,028.9,022.2,021.2,0000.0,0007.75,0005.82,0005.64
2024-04-18 19:18:00,SystemResetWarning,0834.0,4.99,000.00,020.4,019.8,000.0,028.9,022.2,021.3,0000.0,0007.74,0005.80,0005.61
2024-04-18 19:19:00,SystemResetWarning,0834.1,4.99,000.00,020.4,019.8,000.0,028.9,022.3,021.4,0000.0,0007.77,0005.79,0005.58
2024-04-18 19:20:00,SystemResetWarning,0834.0,5.01,000.00,020.4,019.8,000.0,028.9,022.3,021.5,0000.0,0007.93,0005.77,0005.55
2024-04-18 19:21:00,SystemResetWarning,0834.0,5.01,000.00,020.4,019.8,000.0,028.9,022.2,021.6,0000.0,0008.26,0005.75,0005.53
2024-04-18 19:22:00,SystemResetWarning,0834.0,5.01,000.00,020.4,019.8,000.0,028.9,022.3,021.7,0000.0,0008.33,0005.76,0005.51
2024-04-18 19:23:00,SystemResetWarning,0834.0,5.00,000.00,020.4,019.8,000.0,028.9,022.3,021.7,0000.0,0008.26,0005.74,0005.49
2024-04-18 19:24:00,SystemResetWarning,0834.0,4.99,000.00,020.4,019.8,000.0,028.9,022.3,021.5,0000.0,0008.23,0005.73,0005.47
2024-04-18 19:25:00,SystemResetWarning,0834.0,4.99,000.00,020.4,019.8,000.0,028.9,022.3,021.6,0000.0,0008.09,0005.72,0005.46
2024-04-18 19:26:00,SystemResetWarning,0834.0,4.99,000.00,020.4,019.8,000.0,028.9,022.3,021.7,0000.0,0008.11,0005.72,0005.45
2024-04-18 19:27:00,SystemResetWarning,0834.0,5.00,000.00,020.4,019.9,000.0,028.9,022.3,022.1,0000.0,0008.17,0005.74,0005.45
2024-04-18 19:28:00,SystemResetWarning,0834.0,5.01,000.00,020.4,019.9,000.0,028.9,022.3,022.4,0000.0,0008.16,0005.74,0005.46
2024-04-18 19:29:00,SystemResetWarning,0833.9,5.00,000.00,020.5,019.9,000.0,028.9,022.3,022.7,0000.0,0008.15,0005.73,0005.46
2024-04-18 19:30:00,SystemResetWarning,0833.9,4.99,000.00,020.5,019.9,000.0,028.9,022.3,022.4,0000.0,0008.14,0005.74,0005.46
2024-04-18 19:31:00,SystemResetWarning,0834.0,4.99,000.00,020.5,019.9,000.0,028.9,022.3,022.2,0000.0,0007.94,0005.70,0005.45
2024-04-18 19:32:00,SystemResetWarning,0834.0,5.00,000.00,020.5,019.9,000.0,029.0,022.3,022.0,0000.0,0007.48,0005.66,0005.42
2024-04-18 19:33:00,SystemResetWarning,0834.0,5.00,000.00,020.5,019.9,000.0,029.0,022.3,021.8,0000.0,0007.40,0005.62,0005.40
2024-04-18 19:34:00,SystemResetWarning,0834.0,5.00,000.00,020.5,019.9,000.0,029.0,022.3,021.6,0000.0,0007.46,0005.57,0005.35
2024-04-18 19:35:00,SystemResetWarning,0834.0,5.00,000.00,020.5,019.9,000.0,029.0,022.3,021.2,0000.0,0007.62,0005.51,0005.29
2024-04-18 19:36:00,SystemResetWarning,0834.0,5.01,000.00,020.5,019.9,000.0,029.0,022.3,021.2,0000.0,0007.56,0005.44,0005.22
2024-04-18 19:37:00,SystemResetWarning,0833.9,5.01,000.00,020.5,019.9,000.0,029.0,022.3,021.6,0000.0,0007.46,0005.36,0005.16
2024-04-18 19:38:00,SystemResetWarning,0833.9,5.00,000.00,020.5,019.9,000.0,029.0,022.3,021.7,0000.0,0007.43,0005.31,0005.11
2024-04-18 19:39:00,SystemResetWarning,0833.9,4.99,000.00,020.5,019.9,000.0,029.0,022.4,021.8,0000.0,0007.46,0005.28,0005.07
2024-04-18 19:40:00,SystemResetWarning,0833.9,5.00,000.00,020.5,019.9,000.0,029.0,022.4,021.8,0000.0,0007.48,0005.24,0005.03
2024-04-18 19:41:00,SystemResetWarning,0834.0,5.01,000.00,020.5,019.9,000.0,029.0,022.4,021.4,0000.0,0007.43,0005.18,0004.98
2024-04-18 19:42:00,SystemResetWarning,0833.9,5.00,000.00,020.5,019.9,000.0,029.0,022.4,021.2,0000.0,0007.40,0005.13,0004.93
2024-04-18 19:43:00,SystemResetWarning,0833.9,5.01,000.00,020.5,019.9,000.0,029.0,022.4,021.2,0000.0,0007.40,0005.11,0004.90
2024-04-18 19:44:00,SystemResetWarning,0834.0,5.00,000.00,020.5,020.0,000.0,029.0,022.4,021.2,0000.0,0007.40,0005.09,0004.87
2024-04-18 19:45:00,SystemResetWarning,0833.9,5.01,000.00,020.5,020.0,000.0,029.0,022.4,021.2,0000.0,0007.37,0005.09,0004.86
2024-04-18 19:46:00,SystemResetWarning,0833.9,4.99,000.00,020.5,020.0,000.0,029.0,022.4,021.3,0000.0,0007.31,0005.13,0004.88
2024-04-18 19:47:00,SystemResetWarning,0833.9,4.99,000.00,020.5,020.0,000.0,029.0,022.4,021.5,0000.0,0007.35,0005.14,0004.90
2024-04-18 19:48:00,SystemResetWarning,0834.0,4.99,000.00,020.5,020.0,000.0,029.0,022.4,021.5,0000.0,0007.36,0005.16,0004.91
2024-04-18 19:49:00,SystemResetWarning,0834.0,5.01,000.00,020.5,020.0,000.0,029.0,022.4,021.1,0000.0,0007.30,0005.14,0004.90
2024-04-18 19:50:00,SystemResetWarning,0834.0,5.01,000.00,020.6,020.0,000.0,029.0,022.4,021.3,0000.0,0007.30,0005.12,0004.88
2024-04-18 19:51:00,SystemResetWarning,0833.9,5.00,000.00,020.5,020.0,000.0,029.0,022.4,021.5,0000.0,0007.27,0005.12,0004.87
2024-04-18 19:52:00,SystemResetWarning,0834.0,5.00,000.00,020.6,020.0,000.0,029.0,022.4,021.4,0000.0,0007.24,0005.12,0004.88
2024-04-18 19:53:00,SystemResetWarning,0834.0,4.99,000.00,020.6,020.0,000.0,029.0,022.4,021.3,0000.0,0007.21,0005.12,0004.88
2024-04-18 19:54:00,SystemResetWarning,0833.8,5.00,000.00,020.6,020.0,000.0,029.0,022.4,021.7,0000.0,0007.31,0005.10,0004.88
2024-04-18 19:55:00,SystemResetWarning,0833.8,5.00,000.00,020.6,020.0,000.0,029.0,022.4,021.9,0000.0,0007.47,0005.09,0004.88
2024-04-18 19:56:00,SystemResetWarning,0833.8,5.00,000.00,020.6,020.0,000.0,029.0,022.4,021.9,0000.0,0007.47,0005.08,0004.89
2024-04-18 19:57:00,SystemResetWarning,0833.9,5.00,000.00,020.6,020.0,000.0,029.0,022.4,021.7,0000.0,0007.34,0005.06,0004.88
2024-04-18 19:58:00,SystemResetWarning,0833.9,5.01,000.00,020.6,020.0,000.0,029.1,022.4,021.9,0000.0,0007.36,0005.07,0004.87
2024-04-18 19:59:00,SystemResetWarning,0833.9,5.01,000.00,020.6,020.0,000.0,029.1,022.4,022.1,0000.0,0007.37,0005.07,0004.88
